Погода Ерофей Павлович

Погода Ерофей Павлович : погода сейчас, прогноз погоды и архив. Всё, что Вы хотите узнать о погоде Ерофей Павлович!

Хотите узнать прогноз погоды Ерофей Павлович? Тогда Вам сюда: Погода Ерофей Павлович

Поиск расширенной информации на нашем сайте:

Другие новости

Новости СМИ2

Главная страница сайта

Новости сайта

03.07.2017

Напоминаем, что на нашем специализированном сайте Метеоцентр.Азия вы можете получить высокодетализированные автоматические прогнозы погоды по пунктам России, СНГ и мира в авиационном формате (включающие направление и скорость ветра, видимость, явления погоды, количество и форму облачности, нижнюю и верхнюю границу облачности).


Погода Ерофей Павлович - сегодня

Время (UTC), дата Ветер
(°,м/с) 
Видим.   Явления Облачность Т
(°С)
Тd
(°С)
f(%) Тe
(°С)
Pmin
(гПа)
dP
(гПа)
Po
(мм)
O2
(г/м3)
Тmin Tmax R s Состояние
почвы
03 17.10.18 190 (Ю) 20000 м    1/0 верхняя 
[Ci fib]
+6.5 -10.1 29 +7  1021.4  -1  719  284           
06 17.10.18 190 (Ю) 20000 м    ясно 
+10.8 -9.8 22 +11  1018.6  -1.7  718  279           
09 17.10.18 180 (Ю) 20000 м    ясно 
+7.6 -11.7 24 +9  1019.2  -0.1  718  282           
12 17.10.18 080 (В) н/о    ясно 
-1.1 -8.9 55 -1  1022.1  0.8  718  291    +11.3       
15 17.10.18 330 (СЗ) н/о    ясно 
-3.5 -8.6 68 -3  1022.8  0.1  718  294           
18 17.10.18 280 (З) н/о    ясно 
-5.6 -9 77 -5  1022.6  -0.6  718  296           
21 17.10.18 310 (СЗ) н/о    н/о 
-6.7 -9.5 80 -6  1022.3  -0.6  717  297           
00 18.10.18 тихо ()   20000 м    10/0 верхняя 
[Ci]
-3.9 -7.7 75 -4  1021.2  -0.3  717  294  -7.2        замёрзшая 
03 18.10.18 190 (Ю) 20000 м    10/0 средняя, верхняя 
[Ac lent|Cs]
+5.6 -6.4 42 +6  1018  -0.9  717  284           
06 18.10.18 210 (ЮЗ) 20000 м    10/1 600 м кучево-дожд., средняя, верхняя 
[Cb cap|Ac lent|Cs]
+9.8 -6.1 32 +9  1015.4  -1.6  715  279           
09 18.10.18 230 (ЮЗ) 20000 м    10/5 600 м кучево-дожд., верхняя 
[Cb cap|Ci]
+8.7 -6.2 34 +10  1016  0.3  716  280           
15 18.10.18 310 (СЗ) н/о    3/0 верхняя 
[Ci]
-0.1 -5.3 68 +1  1022.4  2.1  719  290           
18 18.10.18 340 (С) н/о    ясно 
-3.3 -6.3 80 -3  1024.1  0.8  719  294           
21 18.10.18 тихо ()   н/о    ясно 
-5.5 -7.8 84 -6  1025.1  0.4  720  297           
00 19.10.18 340 (С) 20000 м    10/0 средняя, верхняя 
[Ac lent|Cs]
-3.2 -6.7 77 -3  1024.2  -0.2  719  294  -6.6        замёрзшая 
03 19.10.18 120 (ЮВ) 20000 м    10/0 верхняя 
[Ci]
+5.1 -4.9 48 +6  1020.6  -1.6  718  285           
06 19.10.18 150 (ЮВ) 20000 м    10/0 верхняя 
[Ci]
+8.4 -6 35 +8  1016.3  -3.3  716  280           
09 19.10.18 040 (СВ) 20000 м    10/0 средняя, верхняя 
[Ac As|Ci]
+4.7 -5.6 47 +6  1016.9  -0.3  716  284           
15 19.10.18 тихо ()   н/о    6/0 верхняя 
[Ci]
-3.7 -6.3 82 -4  1020.8  1.1  717  293           
18 19.10.18 тихо ()   н/о    8/0 верхняя 
[Ci]
-4.5 -7.2 81 -5  1021.8  0.7  717  295           
21 19.10.18 330 (СЗ) н/о    10/0 средняя, верхняя 
[Ac As|Ci]
-5.8 -7.9 85 -5  1022.7  0.5  718  296           
00 20.10.18 310 (СЗ) 20000 м    10/0 средняя, верхняя 
[Ac lent|Ci sp]
-4.4 -6.8 83 -4  1023.7  1.3  719  295  -6.1        замёрзшая 
03 20.10.18 090 (В) 20000 м    8/0 средняя, верхняя 
[Ac trans|Ci]
+5.5 -5.5 45 +5  1021.3  0.1  719  284           
06 20.10.18 080 (В) 20000 м    1/0 верхняя 
[Ci fib]
+7.7 -6.8 35 +8  1018.9  -1.7  718  282           
09 20.10.18 060 (СВ) 20000 м    ясно 
+4.5 -7.1 43 +5  1019.2  -0.5  717  285           
Время (UTC), дата Ветер
(°,м/с) 
Видим.   Явления Облачность Т
(°С)
Тd
(°С)
f(%) Тe
(°С)
Pmin
(гПа)
dP
(гПа)
Po
(мм)
O2
(г/м3)
Тmin Tmax R s Состояние
почвы

Для получения пояснительной информации подведите курсор к названию столбца.

ПОГОДА Ерофей Павлович - архив

Всё, что Вы хотите узнать о погоде Ерофей Павлович - удобно и подробно!

Выберите нужную дату (начиная с 1 января 2015* года) и нажмите кнопку "Найти".
Будут отображены архивные сводки погоды по пункту Ерофей Павлович, начиная с указанной даты.


Отображать данные в формате CSV (для использования в таблицах Excel)


Внимание! Наш архив погоды предназначен исключительно для личного некоммерческого использования в познавательных целях. Если Вам необходимы официальные справки о состоянии погоды (для производственных, юридических, коммерческих и т.п. целей), обращайтесь в органы Росгидромета.

*Примечание: данная дата относится к архиву по метеостанциям СССР (Россия, СНГ, Балтия).
Архив по метеостанциям Зарубежной Европы и Азии (кроме Китая) хранится 10 дней, по другим регионам земного шара (Китай, Африка, Америка, Австралия, Океания) - 1 день.

Ерофей Павлович - район местоположения метеостанции


Название, широта, долгота, высота метеостанции:
Ерофей Павлович 54°ш. 121.9°д. 522 м над ур. моря [Российская Федерация]

Дополнительная информация

В oтличие oт бoльшинства пoгoдных сайтoв мы публикуем пoдрoбную метеoинфoрмацию в детальнoм прoфессиoнальнoм фoрмате.

Характеристики температуры и влажнoсти вoздуха измеряются на высoте 2 м в тени вдали oт зданий и деревьев.
Скoрoсть ветра измеряется на высoте 10 м (на урoвне рoста челoвека скoрoсть ветра ниже в 1.5-2 раза). Если метеoстанция нахoдится в гoрoде или в лесу, тo скoрoсть ветра занижена на 2-4 м/с пo сравнению с oткрытым местoм. Скoрoсть ветра над акватoриями крупных рек и oзёр, а также на вершинах хoлмoв на 2-5 м/с выше, чем в oбычных услoвиях.
Атмoсфернoе давление в разных тoчках местнoсти мoжет значительнo oтличаться oт давления на метеoстанции, в зависимoсти oт услoвий рельефа (при пoдъёме на 10 м давление пoнижается примернo на 1 мм рт.ст.).